RYR470D EGGP-LEIB

Flight info

Callsign RYR470D
Flight time 2h 29m
Altitude 37000
Route NANTI L8 STAFA P18 TELBA L151 KIDLI UN859 SITET DCT ETRAT DCT DVL DCT LGL DCT SORAP DCT BENAR DCT VANAD DCT AMB UN859 SOPIL DCT BALAN DCT EVPOK DCT NARAK DCT GAI DCT LOMRA DCT ROCAN DCT PUMAL N859 BCN Z174 CORDA
Aircraft B738/M-SDE3FGILRWY/SB1

Departure

Time 2026-05-07 04:19
Airport Liverpool John Lennon Airport (EGGP)

Arrival

Time 2026-05-07 06:49
Airport Ibiza Airport (LEIB)
Time Latitude Longitude Altitude Speed Heading
2026-05-07 03:57 53.33654 -2.85654 91 ft 0 kts 355°
2026-05-07 04:11 53.33653 -2.85654 88 ft 1 kts 355°
2026-05-07 04:12 53.33631 -2.85651 90 ft 2 kts 355°
2026-05-07 04:12 53.33610 -2.85642 88 ft 4 kts 302°
2026-05-07 04:12 53.33607 -2.85604 88 ft 4 kts 263°
2026-05-07 04:12 53.33609 -2.85566 90 ft 1 kts 265°
2026-05-07 04:13 53.33609 -2.85565 90 ft 0 kts 265°
2026-05-07 04:14 53.33609 -2.85567 90 ft 1 kts 265°
2026-05-07 04:14 53.33608 -2.85604 88 ft 6 kts 265°
2026-05-07 04:15 53.33603 -2.85706 88 ft 12 kts 265°
2026-05-07 04:15 53.33596 -2.85868 92 ft 15 kts 265°
2026-05-07 04:15 53.33591 -2.86041 91 ft 15 kts 265°
2026-05-07 04:15 53.33584 -2.86205 90 ft 12 kts 265°
2026-05-07 04:16 53.33537 -2.86309 90 ft 12 kts 204°
2026-05-07 04:16 53.33466 -2.86347 88 ft 11 kts 241°
2026-05-07 04:16 53.33458 -2.86490 88 ft 13 kts 266°
2026-05-07 04:16 53.33452 -2.86610 89 ft 10 kts 265°
2026-05-07 04:17 53.33432 -2.86689 90 ft 6 kts 230°
2026-05-07 04:17 53.33416 -2.86713 88 ft 1 kts 214°
2026-05-07 04:17 53.33410 -2.86718 88 ft 2 kts 206°
2026-05-07 04:17 53.33384 -2.86729 88 ft 6 kts 188°
2026-05-07 04:18 53.33330 -2.86707 90 ft 10 kts 145°
2026-05-07 04:18 53.33288 -2.86625 90 ft 10 kts 93°
2026-05-07 04:18 53.33292 -2.86501 86 ft 14 kts 86°
2026-05-07 04:18 53.33315 -2.86018 88 ft 78 kts 85°
2026-05-07 04:19 53.33373 -2.84719 88 ft 144 kts 86°
2026-05-07 04:19 53.33457 -2.82898 603 ft 159 kts 89°
2026-05-07 04:19 53.33560 -2.81022 1427 ft 164 kts 89°
2026-05-07 04:19 53.33524 -2.79066 1979 ft 178 kts 118°
2026-05-07 04:20 53.32631 -2.77562 2282 ft 199 kts 152°
2026-05-07 04:20 53.31360 -2.76291 2507 ft 227 kts 150°
2026-05-07 04:20 53.29958 -2.74828 2949 ft 245 kts 150°
2026-05-07 04:21 53.27000 -2.71659 4665 ft 258 kts 149°
2026-05-07 04:21 53.25471 -2.69995 5520 ft 264 kts 149°
2026-05-07 04:21 53.23937 -2.68312 6382 ft 270 kts 149°
2026-05-07 04:21 53.22359 -2.66575 7205 ft 274 kts 148°
2026-05-07 04:22 53.20750 -2.64804 8040 ft 279 kts 149°
2026-05-07 04:22 53.19112 -2.63002 8888 ft 283 kts 148°
2026-05-07 04:22 53.17464 -2.61145 9754 ft 288 kts 147°
2026-05-07 04:22 53.15808 -2.59205 10439 ft 297 kts 147°
2026-05-07 04:23 53.14039 -2.57126 10654 ft 323 kts 146°
2026-05-07 04:23 53.12175 -2.54925 11067 ft 339 kts 146°
2026-05-07 04:23 53.10219 -2.52612 11630 ft 350 kts 146°
2026-05-07 04:23 53.08207 -2.50233 12278 ft 358 kts 146°
2026-05-07 04:24 53.06188 -2.47847 13228 ft 356 kts 147°
2026-05-07 04:24 53.04166 -2.45463 14082 ft 357 kts 147°
2026-05-07 04:24 53.02116 -2.43050 14765 ft 362 kts 147°
2026-05-07 04:24 53.00047 -2.40619 15472 ft 365 kts 147°
2026-05-07 04:25 52.97965 -2.38175 16184 ft 368 kts 146°
2026-05-07 04:25 52.95889 -2.35740 16898 ft 371 kts 146°
2026-05-07 04:25 52.93766 -2.33252 17608 ft 375 kts 146°
2026-05-07 04:25 52.91625 -2.30749 18304 ft 378 kts 146°
2026-05-07 04:26 52.89463 -2.28225 18897 ft 382 kts 146°
2026-05-07 04:26 52.87167 -2.25996 19461 ft 384 kts 160°
2026-05-07 04:26 52.84550 -2.25141 20042 ft 385 kts 180°
2026-05-07 04:26 52.81903 -2.25720 20614 ft 386 kts 195°
2026-05-07 04:27 52.79302 -2.26806 21135 ft 391 kts 195°
2026-05-07 04:27 52.76645 -2.27917 21653 ft 396 kts 194°
2026-05-07 04:27 52.73953 -2.28996 22192 ft 400 kts 193°
2026-05-07 04:27 52.71230 -2.30052 22733 ft 403 kts 193°
2026-05-07 04:28 52.68453 -2.30879 23220 ft 408 kts 182°
2026-05-07 04:28 52.65626 -2.30361 23706 ft 411 kts 163°
2026-05-07 04:28 52.63048 -2.28473 24172 ft 411 kts 146°
2026-05-07 04:28 52.60670 -2.25822 24662 ft 412 kts 144°
2026-05-07 04:29 52.58291 -2.23118 25099 ft 415 kts 144°
2026-05-07 04:29 52.55900 -2.20422 25528 ft 418 kts 144°
2026-05-07 04:29 52.53495 -2.17743 25958 ft 421 kts 145°
2026-05-07 04:29 52.51072 -2.15075 26391 ft 423 kts 145°
2026-05-07 04:30 52.48612 -2.12383 26813 ft 425 kts 145°
2026-05-07 04:30 52.46144 -2.09692 27221 ft 427 kts 145°
2026-05-07 04:30 52.43654 -2.06980 27616 ft 430 kts 145°
2026-05-07 04:30 52.41151 -2.04258 27990 ft 433 kts 145°
2026-05-07 04:31 52.38634 -2.01521 28386 ft 435 kts 145°
2026-05-07 04:31 52.36102 -1.98768 28768 ft 438 kts 145°
2026-05-07 04:31 52.33557 -1.96009 29121 ft 440 kts 145°
2026-05-07 04:31 52.31021 -1.93263 29443 ft 443 kts 145°
2026-05-07 04:32 52.28443 -1.90476 29790 ft 445 kts 145°
2026-05-07 04:32 52.25847 -1.87676 30157 ft 447 kts 145°
2026-05-07 04:32 52.23238 -1.84881 30505 ft 447 kts 145°
2026-05-07 04:32 52.20631 -1.82100 30854 ft 447 kts 145°
2026-05-07 04:33 52.18026 -1.79324 31239 ft 446 kts 145°
2026-05-07 04:33 52.15464 -1.76596 31621 ft 445 kts 145°
2026-05-07 04:33 52.12861 -1.73824 31997 ft 445 kts 145°
2026-05-07 04:33 52.10260 -1.71060 32341 ft 444 kts 145°
2026-05-07 04:34 52.07701 -1.68350 32696 ft 444 kts 145°
2026-05-07 04:34 52.05114 -1.65626 33072 ft 443 kts 145°
2026-05-07 04:34 52.02521 -1.62913 33438 ft 442 kts 146°
2026-05-07 04:34 51.99939 -1.60193 33763 ft 442 kts 145°
2026-05-07 04:35 51.97363 -1.57455 34095 ft 442 kts 145°
2026-05-07 04:35 51.94794 -1.54720 34361 ft 442 kts 145°
2026-05-07 04:35 51.92218 -1.51982 34602 ft 443 kts 145°
2026-05-07 04:35 51.89637 -1.49248 34836 ft 443 kts 146°
2026-05-07 04:36 51.87047 -1.46513 35085 ft 443 kts 146°
2026-05-07 04:36 51.85328 -1.44707 35251 ft 443 kts 146°
2026-05-07 04:36 51.82737 -1.41993 35443 ft 445 kts 146°
2026-05-07 04:36 51.79291 -1.38392 35742 ft 445 kts 147°
2026-05-07 04:37 51.76600 -1.35911 35972 ft 446 kts 155°
2026-05-07 04:37 51.74654 -1.34660 36117 ft 446 kts 162°
2026-05-07 04:37 51.71680 -1.33235 36368 ft 445 kts 164°
2026-05-07 04:37 51.68734 -1.31851 36594 ft 445 kts 163°
2026-05-07 04:38 51.65766 -1.30401 36811 ft 446 kts 163°
2026-05-07 04:38 51.62798 -1.28905 37017 ft 446 kts 163°
2026-05-07 04:38 51.56865 -1.25880 37057 ft 450 kts 163°
2026-05-07 04:39 51.50893 -1.22854 37042 ft 446 kts 163°
2026-05-07 04:39 51.45152 -1.19199 37062 ft 443 kts 154°
2026-05-07 04:40 51.39596 -1.14904 37050 ft 442 kts 155°
2026-05-07 04:40 51.34007 -1.10778 37052 ft 442 kts 156°
2026-05-07 04:41 51.28446 -1.06727 37048 ft 442 kts 156°
2026-05-07 04:41 51.22834 -1.02634 37052 ft 443 kts 156°
2026-05-07 04:42 51.17214 -0.98552 37050 ft 444 kts 156°
2026-05-07 04:42 51.11612 -0.94493 37049 ft 445 kts 156°
2026-05-07 04:43 51.05949 -0.90398 37051 ft 446 kts 156°
2026-05-07 04:43 51.00288 -0.86316 37052 ft 447 kts 156°
2026-05-07 04:44 50.94642 -0.82255 37047 ft 448 kts 156°
2026-05-07 04:44 50.88957 -0.78176 37047 ft 448 kts 156°
2026-05-07 04:45 50.83363 -0.73769 37045 ft 449 kts 149°
2026-05-07 04:45 50.78151 -0.68421 37039 ft 449 kts 147°
2026-05-07 04:46 50.72921 -0.62957 37047 ft 449 kts 148°
2026-05-07 04:46 50.67703 -0.57604 37040 ft 448 kts 148°
2026-05-07 04:47 50.62458 -0.52290 37034 ft 448 kts 148°
2026-05-07 04:47 50.57203 -0.46993 37041 ft 447 kts 148°
2026-05-07 04:48 50.51977 -0.41738 37040 ft 447 kts 148°
2026-05-07 04:48 50.46711 -0.36455 37038 ft 447 kts 148°
2026-05-07 04:49 50.41484 -0.31224 37032 ft 447 kts 149°
2026-05-07 04:49 50.36242 -0.25992 37038 ft 446 kts 149°
2026-05-07 04:50 50.31018 -0.20791 37038 ft 446 kts 149°
2026-05-07 04:50 50.25771 -0.15582 37039 ft 447 kts 149°
2026-05-07 04:51 50.20518 -0.10379 37038 ft 447 kts 149°
2026-05-07 04:51 50.15256 -0.05179 37035 ft 447 kts 149°
2026-05-07 04:52 50.09938 -0.00269 37029 ft 445 kts 158°
2026-05-07 04:52 50.04056 0.02518 37045 ft 443 kts 168°
2026-05-07 04:53 49.98054 0.04753 37041 ft 443 kts 168°
2026-05-07 04:53 49.92045 0.07049 37037 ft 444 kts 167°
2026-05-07 04:54 49.86081 0.09375 37039 ft 444 kts 167°
2026-05-07 04:54 49.80074 0.11722 37042 ft 445 kts 167°
2026-05-07 04:55 49.74058 0.14065 37039 ft 445 kts 167°
2026-05-07 04:55 49.68033 0.16403 37047 ft 445 kts 167°
2026-05-07 04:56 49.62068 0.18797 37046 ft 445 kts 167°
2026-05-07 04:56 49.56078 0.21241 37052 ft 445 kts 167°
2026-05-07 04:57 49.50076 0.23675 37040 ft 445 kts 167°
2026-05-07 04:57 49.44107 0.26080 37047 ft 445 kts 167°
2026-05-07 04:58 49.38140 0.28478 37050 ft 444 kts 167°
2026-05-07 04:58 49.32146 0.30880 37047 ft 444 kts 167°
2026-05-07 04:59 49.26167 0.33338 37048 ft 444 kts 166°
2026-05-07 04:59 49.20245 0.35847 37046 ft 443 kts 166°
2026-05-07 05:00 49.14295 0.38358 37049 ft 443 kts 166°
2026-05-07 05:00 49.08343 0.40852 37029 ft 443 kts 166°
2026-05-07 05:01 49.02420 0.43323 37045 ft 442 kts 166°
2026-05-07 05:01 48.96467 0.45801 37050 ft 442 kts 166°
2026-05-07 05:02 48.90562 0.48254 37050 ft 443 kts 166°
2026-05-07 05:02 48.84599 0.50726 37050 ft 443 kts 166°
2026-05-07 05:03 48.78629 0.53192 37046 ft 444 kts 167°
2026-05-07 05:03 48.72675 0.55544 37050 ft 444 kts 167°
2026-05-07 05:04 48.66666 0.57871 37049 ft 444 kts 167°
2026-05-07 05:04 48.60701 0.60191 37045 ft 445 kts 167°
2026-05-07 05:05 48.54714 0.62522 37049 ft 445 kts 167°
2026-05-07 05:05 48.48743 0.64875 37047 ft 445 kts 167°
2026-05-07 05:06 48.42756 0.67322 37039 ft 445 kts 166°
2026-05-07 05:06 48.36762 0.69767 37049 ft 445 kts 167°
2026-05-07 05:07 48.30816 0.72174 37038 ft 445 kts 167°
2026-05-07 05:07 48.24820 0.74592 37040 ft 444 kts 167°
2026-05-07 05:08 48.18843 0.76957 37036 ft 444 kts 167°
2026-05-07 05:08 48.12897 0.79289 37033 ft 444 kts 167°
2026-05-07 05:09 48.06903 0.81638 37046 ft 444 kts 167°
2026-05-07 05:09 48.00938 0.83975 37037 ft 443 kts 167°
2026-05-07 05:10 47.94994 0.86299 37030 ft 443 kts 167°
2026-05-07 05:10 47.89015 0.88631 37037 ft 443 kts 167°
2026-05-07 05:11 47.83034 0.90957 37034 ft 443 kts 167°
2026-05-07 05:11 47.77087 0.93260 37023 ft 444 kts 167°
2026-05-07 05:12 47.71102 0.95571 37032 ft 444 kts 167°
2026-05-07 05:12 47.65108 0.97882 37034 ft 444 kts 167°
2026-05-07 05:13 47.59146 1.00176 37027 ft 445 kts 167°
2026-05-07 05:13 47.53151 1.02477 37030 ft 445 kts 167°
2026-05-07 05:14 47.47143 1.04778 37030 ft 445 kts 167°
2026-05-07 05:14 47.41113 1.06493 37021 ft 442 kts 180°
2026-05-07 05:15 47.34972 1.06343 37022 ft 441 kts 184°
2026-05-07 05:15 47.28840 1.06109 37031 ft 441 kts 183°
2026-05-07 05:16 47.22729 1.05943 37026 ft 441 kts 183°
2026-05-07 05:16 47.16585 1.05808 37017 ft 441 kts 183°
2026-05-07 05:17 47.10436 1.05674 37029 ft 441 kts 183°
2026-05-07 05:17 47.04335 1.05539 37027 ft 441 kts 183°
2026-05-07 05:18 46.98202 1.05347 37025 ft 440 kts 184°
2026-05-07 05:18 46.92069 1.05063 37025 ft 440 kts 184°
2026-05-07 05:19 46.85944 1.04781 37025 ft 439 kts 184°
2026-05-07 05:19 46.79867 1.04514 37028 ft 439 kts 184°
2026-05-07 05:20 46.73744 1.04250 37029 ft 439 kts 184°
2026-05-07 05:20 46.67667 1.03989 37021 ft 439 kts 184°
2026-05-07 05:21 46.58510 1.03596 37019 ft 438 kts 184°
2026-05-07 05:22 46.52434 1.03388 37007 ft 439 kts 180°
2026-05-07 05:22 46.46386 1.04861 37024 ft 442 kts 169°
2026-05-07 05:23 46.40392 1.06961 37014 ft 443 kts 169°
2026-05-07 05:23 46.34394 1.09034 37014 ft 443 kts 169°
2026-05-07 05:24 46.28427 1.11043 37006 ft 442 kts 169°
2026-05-07 05:24 46.22417 1.13040 37003 ft 442 kts 169°
2026-05-07 05:25 46.17426 1.14694 37008 ft 443 kts 169°
2026-05-07 05:25 46.11399 1.16687 36999 ft 443 kts 170°
2026-05-07 05:26 46.05422 1.18661 36998 ft 443 kts 170°
2026-05-07 05:26 45.99397 1.20646 36993 ft 444 kts 170°
2026-05-07 05:27 45.93396 1.22619 36987 ft 444 kts 170°
2026-05-07 05:27 45.87354 1.24601 36996 ft 444 kts 170°
2026-05-07 05:28 45.81356 1.26564 36993 ft 444 kts 170°
2026-05-07 05:28 45.75333 1.28531 36991 ft 444 kts 170°
2026-05-07 05:29 45.69296 1.30499 36995 ft 444 kts 170°
2026-05-07 05:29 45.63252 1.32464 36999 ft 444 kts 170°
2026-05-07 05:30 45.57250 1.34412 36992 ft 444 kts 170°
2026-05-07 05:30 45.51205 1.36370 36990 ft 444 kts 171°
2026-05-07 05:31 45.45214 1.38305 36996 ft 443 kts 171°
2026-05-07 05:31 45.39188 1.40246 36993 ft 443 kts 171°
2026-05-07 05:32 45.33164 1.42184 36991 ft 443 kts 171°
2026-05-07 05:32 45.27195 1.44101 36992 ft 442 kts 171°
2026-05-07 05:33 45.21181 1.46028 36993 ft 442 kts 171°
2026-05-07 05:33 45.15179 1.47947 36985 ft 441 kts 171°
2026-05-07 05:34 45.09176 1.49862 36987 ft 441 kts 171°
2026-05-07 05:34 45.03219 1.51758 36992 ft 441 kts 171°
2026-05-07 05:35 44.97233 1.53660 36986 ft 440 kts 171°
2026-05-07 05:35 44.91244 1.55558 37003 ft 440 kts 171°
2026-05-07 05:36 44.85298 1.57439 36995 ft 440 kts 171°
2026-05-07 05:36 44.79306 1.59330 37002 ft 440 kts 171°
2026-05-07 05:37 44.73310 1.61218 36996 ft 441 kts 171°
2026-05-07 05:37 44.67353 1.63091 37003 ft 441 kts 171°
2026-05-07 05:38 44.61347 1.64975 36986 ft 441 kts 171°
2026-05-07 05:38 44.55387 1.66841 37002 ft 441 kts 171°
2026-05-07 05:39 44.49389 1.68714 36996 ft 441 kts 171°
2026-05-07 05:39 44.43385 1.70586 37004 ft 441 kts 171°
2026-05-07 05:40 44.37432 1.72438 36995 ft 440 kts 172°
2026-05-07 05:40 44.31466 1.74290 36999 ft 440 kts 172°
2026-05-07 05:41 44.25472 1.75910 37005 ft 437 kts 175°
2026-05-07 05:41 44.19451 1.77177 36999 ft 436 kts 176°
2026-05-07 05:42 44.13445 1.78446 37001 ft 436 kts 175°
2026-05-07 05:42 44.07487 1.79747 37005 ft 435 kts 175°
2026-05-07 05:43 44.01499 1.81064 36999 ft 435 kts 175°
2026-05-07 05:43 43.95516 1.82371 37003 ft 434 kts 176°
2026-05-07 05:44 43.89548 1.83136 37015 ft 430 kts 181°
2026-05-07 05:44 43.83597 1.83622 37010 ft 430 kts 181°
2026-05-07 05:45 43.77605 1.84144 37003 ft 429 kts 181°
2026-05-07 05:45 43.71678 1.84705 37012 ft 429 kts 181°
2026-05-07 05:46 43.65707 1.85284 37013 ft 430 kts 181°
2026-05-07 05:46 43.59743 1.85862 37001 ft 429 kts 181°
2026-05-07 05:47 43.53801 1.86436 37011 ft 429 kts 181°
2026-05-07 05:47 43.47842 1.87010 37019 ft 429 kts 181°
2026-05-07 05:48 43.41871 1.87584 37023 ft 429 kts 181°
2026-05-07 05:48 43.35942 1.88152 37019 ft 428 kts 181°
2026-05-07 05:49 43.29988 1.88724 37020 ft 428 kts 181°
2026-05-07 05:49 43.24044 1.89296 37026 ft 427 kts 181°
2026-05-07 05:50 43.18117 1.89865 37014 ft 427 kts 181°
2026-05-07 05:50 43.12211 1.90431 37015 ft 427 kts 181°
2026-05-07 05:51 43.06273 1.90999 37020 ft 427 kts 182°
2026-05-07 05:51 43.00336 1.91566 37004 ft 427 kts 182°
2026-05-07 05:52 42.94418 1.92130 37014 ft 426 kts 182°
2026-05-07 05:52 42.88527 1.92690 37028 ft 426 kts 182°
2026-05-07 05:53 42.82597 1.93253 37013 ft 426 kts 182°
2026-05-07 05:53 42.76704 1.93811 37014 ft 427 kts 182°
2026-05-07 05:54 42.70763 1.94373 37017 ft 427 kts 182°
2026-05-07 05:54 42.64861 1.95077 36999 ft 430 kts 178°
2026-05-07 05:55 42.58931 1.96290 36995 ft 431 kts 177°
2026-05-07 05:55 42.53029 1.97538 37001 ft 431 kts 177°
2026-05-07 05:56 42.47091 1.98737 37007 ft 431 kts 178°
2026-05-07 05:56 42.41163 1.99914 37012 ft 430 kts 178°
2026-05-07 05:57 42.35241 2.01009 36996 ft 427 kts 181°
2026-05-07 05:57 42.29373 2.01603 37005 ft 425 kts 182°
2026-05-07 05:58 42.23466 2.02111 37019 ft 424 kts 182°
2026-05-07 05:58 42.17614 2.02643 37014 ft 422 kts 182°
2026-05-07 05:59 42.11757 2.03198 37022 ft 420 kts 182°
2026-05-07 05:59 42.05916 2.03759 37016 ft 420 kts 182°
2026-05-07 06:00 42.00087 2.04316 37012 ft 419 kts 182°
2026-05-07 06:00 41.94312 2.04868 37012 ft 418 kts 182°
2026-05-07 06:01 41.88492 2.05422 37021 ft 419 kts 182°
2026-05-07 06:01 41.82697 2.05973 37018 ft 419 kts 182°
2026-05-07 06:02 41.76864 2.06526 37019 ft 420 kts 182°
2026-05-07 06:02 41.71034 2.07079 37016 ft 419 kts 182°
2026-05-07 06:03 41.65202 2.07626 37016 ft 419 kts 182°
2026-05-07 06:03 41.59399 2.08161 37023 ft 420 kts 182°
2026-05-07 06:04 41.53567 2.08698 37011 ft 419 kts 182°
2026-05-07 06:04 41.47746 2.09235 36993 ft 418 kts 182°
2026-05-07 06:05 41.41974 2.09766 37003 ft 418 kts 182°
2026-05-07 06:05 41.36160 2.10299 36984 ft 418 kts 182°
2026-05-07 06:06 41.30364 2.10841 36986 ft 417 kts 181°
2026-05-07 06:06 41.24602 2.11720 36992 ft 418 kts 179°
2026-05-07 06:07 41.18849 2.12744 36994 ft 416 kts 178°
2026-05-07 06:07 41.13093 2.13746 37012 ft 415 kts 179°
2026-05-07 06:08 41.07386 2.14711 36998 ft 414 kts 179°
2026-05-07 06:08 41.01705 2.15661 37001 ft 413 kts 179°
2026-05-07 06:09 40.95986 2.16613 36996 ft 413 kts 179°
2026-05-07 06:09 40.90272 2.17563 36994 ft 413 kts 179°
2026-05-07 06:10 40.84556 2.18513 36985 ft 413 kts 179°
2026-05-07 06:10 40.78878 2.19455 36991 ft 413 kts 179°
2026-05-07 06:11 40.74113 2.20244 36991 ft 414 kts 179°
2026-05-07 06:11 40.67453 2.21345 36990 ft 414 kts 179°
2026-05-07 06:12 40.62652 2.22137 36986 ft 415 kts 179°
2026-05-07 06:12 40.56950 2.23077 36986 ft 415 kts 179°
2026-05-07 06:13 40.51206 2.24022 36986 ft 415 kts 179°
2026-05-07 06:13 40.45479 2.24963 36987 ft 416 kts 179°
2026-05-07 06:14 40.39729 2.25981 36978 ft 418 kts 177°
2026-05-07 06:14 40.34016 2.27446 36982 ft 419 kts 175°
2026-05-07 06:15 40.28320 2.28994 36979 ft 419 kts 175°
2026-05-07 06:15 40.22596 2.30506 36948 ft 418 kts 176°
2026-05-07 06:16 40.16886 2.31984 36943 ft 418 kts 176°
2026-05-07 06:16 40.14058 2.32710 36630 ft 417 kts 176°
2026-05-07 06:16 40.11237 2.33438 36296 ft 411 kts 176°
2026-05-07 06:16 40.08447 2.34158 35951 ft 406 kts 176°
2026-05-07 06:17 40.05690 2.34867 35555 ft 402 kts 176°
2026-05-07 06:17 40.02956 2.35568 35186 ft 399 kts 176°
2026-05-07 06:17 40.00232 2.36264 34793 ft 396 kts 176°
2026-05-07 06:17 39.97537 2.36953 34429 ft 393 kts 177°
2026-05-07 06:18 39.94863 2.37637 34063 ft 390 kts 177°
2026-05-07 06:18 39.92206 2.38315 33653 ft 387 kts 176°
2026-05-07 06:18 39.89566 2.38989 33253 ft 384 kts 176°
2026-05-07 06:18 39.86983 2.39648 32884 ft 381 kts 176°
2026-05-07 06:19 39.84383 2.40310 32518 ft 378 kts 176°
2026-05-07 06:19 39.81811 2.40965 32153 ft 375 kts 176°
2026-05-07 06:19 39.79259 2.41615 31800 ft 372 kts 176°
2026-05-07 06:19 39.76747 2.42254 31436 ft 369 kts 176°
2026-05-07 06:20 39.74232 2.42638 31026 ft 357 kts 190°
2026-05-07 06:20 39.71780 2.42291 30563 ft 353 kts 194°
2026-05-07 06:20 39.69339 2.41859 30172 ft 352 kts 194°
2026-05-07 06:20 39.66909 2.41441 29786 ft 350 kts 193°
2026-05-07 06:21 39.64500 2.41051 29389 ft 347 kts 193°
2026-05-07 06:21 39.62116 2.40681 29048 ft 343 kts 193°
2026-05-07 06:21 39.59746 2.40320 28683 ft 340 kts 193°
2026-05-07 06:21 39.57422 2.39900 28346 ft 333 kts 200°
2026-05-07 06:22 39.55369 2.38696 28021 ft 319 kts 217°
2026-05-07 06:22 39.52343 2.34669 27164 ft 313 kts 236°
2026-05-07 06:22 39.51137 2.32318 26799 ft 311 kts 237°
2026-05-07 06:23 39.49971 2.29964 26451 ft 309 kts 238°
2026-05-07 06:23 39.48812 2.27620 26117 ft 307 kts 237°
2026-05-07 06:23 39.47655 2.25294 25795 ft 305 kts 237°
2026-05-07 06:23 39.46520 2.23027 25465 ft 303 kts 237°
2026-05-07 06:24 39.45372 2.20746 25139 ft 301 kts 237°
2026-05-07 06:24 39.44223 2.18476 24818 ft 300 kts 237°
2026-05-07 06:24 39.43081 2.16223 24500 ft 298 kts 237°
2026-05-07 06:24 39.41944 2.13986 24181 ft 297 kts 236°
2026-05-07 06:25 39.40813 2.11762 23870 ft 295 kts 236°
2026-05-07 06:25 39.39684 2.09547 23550 ft 294 kts 236°
2026-05-07 06:25 39.38554 2.07332 23176 ft 293 kts 236°
2026-05-07 06:25 39.37447 2.05165 22837 ft 292 kts 236°
2026-05-07 06:26 39.36327 2.02971 22499 ft 290 kts 236°
2026-05-07 06:26 39.35220 2.00807 22187 ft 288 kts 236°
2026-05-07 06:26 39.34115 1.98646 21873 ft 287 kts 236°
2026-05-07 06:26 39.33019 1.96507 21546 ft 288 kts 237°
2026-05-07 06:27 39.31904 1.94330 21252 ft 293 kts 237°
2026-05-07 06:27 39.30755 1.92089 20941 ft 303 kts 237°
2026-05-07 06:27 39.29582 1.89802 20622 ft 305 kts 236°
2026-05-07 06:27 39.28423 1.87544 20273 ft 304 kts 236°
2026-05-07 06:28 39.27250 1.85260 19933 ft 302 kts 236°
2026-05-07 06:28 39.26090 1.83004 19607 ft 301 kts 237°
2026-05-07 06:28 39.24934 1.80758 19281 ft 300 kts 237°
2026-05-07 06:28 39.23793 1.78538 18958 ft 299 kts 237°
2026-05-07 06:29 39.22632 1.76285 18633 ft 298 kts 237°
2026-05-07 06:29 39.21496 1.74084 18300 ft 298 kts 237°
2026-05-07 06:29 39.20343 1.71860 17919 ft 298 kts 236°
2026-05-07 06:29 39.19100 1.69671 17341 ft 304 kts 233°
2026-05-07 06:30 39.17808 1.67505 16928 ft 305 kts 233°
2026-05-07 06:30 39.16513 1.65353 16606 ft 303 kts 233°
2026-05-07 06:30 39.15243 1.63233 16280 ft 301 kts 233°
2026-05-07 06:30 39.13962 1.61089 15942 ft 299 kts 233°
2026-05-07 06:31 39.12693 1.58956 15642 ft 298 kts 233°
2026-05-07 06:31 39.11451 1.56867 15334 ft 296 kts 233°
2026-05-07 06:31 39.10198 1.54758 15019 ft 295 kts 233°
2026-05-07 06:31 39.08955 1.52664 14719 ft 294 kts 233°
2026-05-07 06:32 39.07713 1.50573 14406 ft 293 kts 233°
2026-05-07 06:32 39.06475 1.48492 14098 ft 293 kts 233°
2026-05-07 06:32 39.05239 1.46416 13792 ft 292 kts 233°
2026-05-07 06:32 39.04006 1.44333 13436 ft 292 kts 233°
2026-05-07 06:33 39.02800 1.42257 13086 ft 292 kts 233°
2026-05-07 06:33 39.01591 1.40163 12772 ft 290 kts 233°
2026-05-07 06:33 39.00389 1.38083 12471 ft 289 kts 233°
2026-05-07 06:33 38.99188 1.36008 12169 ft 287 kts 233°
2026-05-07 06:34 38.97997 1.33951 11869 ft 286 kts 233°
2026-05-07 06:34 38.96811 1.31906 11569 ft 284 kts 233°
2026-05-07 06:34 38.95630 1.29870 11267 ft 283 kts 233°
2026-05-07 06:34 38.94470 1.27873 10984 ft 282 kts 233°
2026-05-07 06:35 38.93302 1.25864 10780 ft 277 kts 233°
2026-05-07 06:35 38.92164 1.23906 10649 ft 270 kts 233°
2026-05-07 06:35 38.91052 1.21996 10535 ft 263 kts 233°
2026-05-07 06:35 38.89969 1.20137 10417 ft 257 kts 233°
2026-05-07 06:36 38.88913 1.18326 10298 ft 250 kts 233°
2026-05-07 06:36 38.87992 1.16450 10136 ft 246 kts 242°
2026-05-07 06:36 38.87203 1.14511 9901 ft 244 kts 243°
2026-05-07 06:36 38.86437 1.12598 9656 ft 243 kts 242°
2026-05-07 06:37 38.85654 1.10672 9396 ft 243 kts 242°
2026-05-07 06:37 38.84865 1.08759 9146 ft 242 kts 241°
2026-05-07 06:37 38.84081 1.06874 8895 ft 241 kts 241°
2026-05-07 06:37 38.83292 1.04983 8653 ft 240 kts 241°
2026-05-07 06:38 38.82501 1.03092 8411 ft 240 kts 241°
2026-05-07 06:38 38.81715 1.01213 8196 ft 237 kts 240°
2026-05-07 06:38 38.80937 0.99354 7985 ft 236 kts 240°
2026-05-07 06:38 38.80156 0.97494 7750 ft 236 kts 240°
2026-05-07 06:39 38.79367 0.95635 7515 ft 237 kts 237°
2026-05-07 06:39 38.78294 0.94099 7302 ft 234 kts 219°
2026-05-07 06:39 38.77070 0.92719 7123 ft 236 kts 220°
2026-05-07 06:39 38.75830 0.91319 7042 ft 238 kts 214°
2026-05-07 06:40 38.74308 0.90579 6873 ft 235 kts 178°
2026-05-07 06:40 38.72759 0.91000 6714 ft 223 kts 154°
2026-05-07 06:40 38.71398 0.91867 6479 ft 215 kts 146°
2026-05-07 06:40 38.70416 0.93172 6237 ft 202 kts 108°
2026-05-07 06:41 38.70429 0.94886 6075 ft 197 kts 70°
2026-05-07 06:41 38.70935 0.96541 5878 ft 202 kts 71°
2026-05-07 06:41 38.71427 0.98223 5638 ft 200 kts 68°
2026-05-07 06:41 38.71981 0.99841 5410 ft 195 kts 66°
2026-05-07 06:42 38.72559 1.01364 5209 ft 190 kts 64°
2026-05-07 06:42 38.73157 1.02873 5014 ft 189 kts 64°
2026-05-07 06:42 38.73752 1.04347 4833 ft 183 kts 64°
2026-05-07 06:42 38.74333 1.05774 4650 ft 179 kts 64°
2026-05-07 06:43 38.74908 1.07181 4598 ft 176 kts 63°
2026-05-07 06:43 38.75481 1.08584 4622 ft 180 kts 63°
2026-05-07 06:43 38.76082 1.10053 4419 ft 189 kts 63°
2026-05-07 06:43 38.76691 1.11540 4169 ft 187 kts 63°
2026-05-07 06:44 38.77283 1.12983 3926 ft 183 kts 63°
2026-05-07 06:44 38.77871 1.14416 3689 ft 179 kts 63°
2026-05-07 06:44 38.78448 1.15824 3455 ft 178 kts 63°
2026-05-07 06:44 38.79026 1.17234 3219 ft 179 kts 63°
2026-05-07 06:45 38.79608 1.18654 2979 ft 180 kts 63°
2026-05-07 06:45 38.80190 1.20070 2731 ft 178 kts 62°
2026-05-07 06:45 38.80759 1.21455 2497 ft 173 kts 63°
2026-05-07 06:45 38.81313 1.22804 2278 ft 168 kts 62°
2026-05-07 06:46 38.81852 1.24116 2046 ft 163 kts 62°
2026-05-07 06:46 38.82367 1.25371 1830 ft 159 kts 63°
2026-05-07 06:46 38.82876 1.26608 1619 ft 154 kts 62°
2026-05-07 06:46 38.83372 1.27815 1416 ft 153 kts 62°
2026-05-07 06:47 38.83868 1.29021 1218 ft 151 kts 63°
2026-05-07 06:47 38.84351 1.30196 1047 ft 147 kts 63°
2026-05-07 06:47 38.84827 1.31353 803 ft 146 kts 62°
2026-05-07 06:47 38.85293 1.32506 615 ft 145 kts 62°
2026-05-07 06:48 38.85768 1.33638 446 ft 144 kts 60°
2026-05-07 06:48 38.86245 1.34773 245 ft 143 kts 63°
2026-05-07 06:48 38.86695 1.35893 44 ft 143 kts 61°
2026-05-07 06:48 38.87133 1.36943 11 ft 116 kts 62°
2026-05-07 06:49 38.87407 1.37608 10 ft 41 kts 62°
2026-05-07 06:49 38.87522 1.37803 10 ft 14 kts 36°
2026-05-07 06:49 38.87588 1.37862 10 ft 11 kts 33°
2026-05-07 06:49 38.87659 1.37911 11 ft 12 kts 13°
2026-05-07 06:50 38.87694 1.37850 10 ft 12 kts 243°
2026-05-07 06:50 38.87654 1.37752 10 ft 12 kts 241°
2026-05-07 06:50 38.87613 1.37657 8 ft 12 kts 241°
2026-05-07 06:50 38.87589 1.37562 8 ft 12 kts 296°
2026-05-07 06:51 38.87656 1.37508 8 ft 11 kts 332°
2026-05-07 06:51 38.87697 1.37433 7 ft 11 kts 260°
2026-05-07 06:51 38.87664 1.37347 7 ft 8 kts 242°
2026-05-07 06:51 38.87638 1.37284 7 ft 8 kts 242°
2026-05-07 06:52 38.87618 1.37237 7 ft 5 kts 242°
2026-05-07 06:52 38.87601 1.37196 7 ft 5 kts 242°
2026-05-07 06:52 38.87583 1.37151 7 ft 6 kts 242°
2026-05-07 06:52 38.87562 1.37100 8 ft 7 kts 242°
2026-05-07 06:53 38.87540 1.37046 7 ft 6 kts 253°
2026-05-07 06:53 38.87566 1.37009 7 ft 6 kts 330°
2026-05-07 06:53 38.87589 1.36994 7 ft 0 kts 332°